Regional Weather Roundup
Issued by NWS Jackson, KY

Home | Current Version | Previous Version | Text Only | Print | Product List | Glossary On
Versions: 1 2 3 4 5 6 7 8 9 10 11 12 13 14 15 16 17 18 19 20 21 22 23 24 25 26 27 28
000
ASUS43 KJKL 291410
RWRJKL

EAST KENTUCKY HOURLY WEATHER ROUNDUP
NATIONAL WEATHER SERVICE JACKSON KY
1000 AM EDT FRI APR 29 2016

NOTE: "FAIR" INDICATES FEW OR NO CLOUDS BELOW 12,000 FEET WITH
NO SIGNIFICANT WEATHER AND/OR OBSTRUCTIONS TO VISIBILITY.

* THESE REPORTS ARE NOT UNDER NWS QUALITY CONTROL AND MAY NOT
  REPORT WEATHER SUCH AS PRECIPITATION AND FOG.

KYZ079-080-083-085-087-088-110-112-115-119-120-291500
...EASTERN KENTUCKY...

CITY           SKY/WX    TMP DP  RH WIND       PRES   REMARKS
JACKSON        SUNNY     63  54  72 CALM      30.03F
LONDON         SUNNY     64  53  67 CALM      30.05S
SOMERSET*      SUNNY     63  54  72 CALM      30.06S
MONTICELLO*    SUNNY     66  56  70 W5        30.07R
WILLIAMSBURG*  SUNNY     59  52  77 CALM      30.06R
MIDDLESBORO*   SUNNY     64  56  74 CALM      30.06F
HARLAN APT*      N/A     59  57  94 CALM      30.06F
HAZARD APT*    SUNNY     64  54  68 CALM      30.03F
BLACK MTN*       N/A     61  46  59 N3          N/A
PIKE CO APT*     N/A     63  54  71 SW3       30.03F
BIG SANDY APT* CLOUDY    63  55  74 W3        30.03F
MOREHEAD APT*  SUNNY     61  55  82 CALM      30.04F
$$

KYZ035-036-041-042-044-050-067-078-099-291500
...CENTRAL KENTUCKY...

CITY           SKY/WX    TMP DP  RH WIND       PRES   REMARKS
MT STERLING*   SUNNY     63  55  77 NW5       30.05S
FLEMING/MASON* PTSUNNY   57  55  93 W5        30.03F
DANVILLE*      SUNNY     63  54  72 N6        30.07R
RICHMOND*      SUNNY     61  52  72 NW5       30.05S
LEXINGTON      SUNNY     63  52  67 NW8       30.06R
FRANKFORT      SUNNY     62  47  57 VRB6      30.04S
LOUISVILLE     PTSUNNY   64  43  46 NW3       30.05R
LEBANON*         N/A     63  52  67 NW6       30.06R
BOWLING GREEN  MOSUNNY   66  55  67 NE8       30.04S
$$

KYZ091>093-OHZ055-061-077-WVZ005-015-034-035-042-291500
...SOUTHERN OHIO/WEST VIRGINIA...

CITY           SKY/WX    TMP DP  RH WIND       PRES   REMARKS
COVINGTON      MOSUNNY   59  50  72 NW8       30.02S
COLUMBUS       CLOUDY    50  48  93 W7        30.02R FOG
DAYTON         CLOUDY    50  48  93 N8        30.02F FOG
WILMINGTON     PTSUNNY   56  51  84 NW7       30.00F HAZE
HUNTINGTON       N/A     66  56  70 VRB7      30.00F
CHARLESTON     PTSUNNY   64  57  78 NW3       30.01S
PINEVILLE*       N/A     65  50  59 MISG      30.08F
BECKLEY        PTSUNNY   62  51  67 W10       30.04F
$$

VAZ002-007-008-TNZ017-027-036-066-071-291500
...SOUTHWEST VIRGINIA/EAST TENNESSEE...

CITY           SKY/WX    TMP DP  RH WIND       PRES   REMARKS
WISE*            N/A     64  43  45 CALM      30.09F
BRISTOL        CLOUDY    66  57  72 SW5       30.06S
MORRISTOWN*    SUNNY     70  55  60 SW5       30.05F
SEVIERVILLE*   SUNNY     68  55  64 CALM      30.04F
KNOXVILLE      CLOUDY    70  55  59 CALM      30.04S
OAK RIDGE      CLOUDY    71  54  54 CALM      30.05F
CROSSVILLE     SUNNY     70  48  45 NE6       30.09R
NASHVILLE      PTSUNNY   70  55  59 CALM      30.03F
$$

...KEY TO REMARKS...
VSB - VISIBILITY IN MILES
WCI - WIND CHILL INDEX
HX  - HEAT INDEX

$$




USA.gov is the U.S. government's official web portal to all federal, state and local government web resources and services.